Showing default

IRIDE-MS1-EAG2-9, 68449

Orbit data source: Space-Track

IRIDE-MS1-EAG2-9, 68449 is an Italian payload satellite in SSO that was launched on Mon, 30 Mar 2026 UTC via an FALCON 9 launch vehicle from the Air Force Western Test Range (AFWTR). Payload-class satellites include a variety of spacecraft equipped with specific instruments for various scientific and technological missions. These include communications satellites like Starlink; space stations such as the ISS; scientific satellites like the Hubble; Earth observation satellites from companies like Planet Labs, Umbra, and HawkEye 360; GPS; miniature CubeSats for education and research; and military/defense satellites.

Loading next visibility...
Identifier
68449, 2026-067AK
Orbit
SSO
Country
Flag of ITIT
Related business
Manufacturer
OHB-I
Mission
Operational spacecraft
Bus & Motor
EAGLET, Unknown motor
Mass
25 kg wet, 25 kg dry
Launch date (UTC)
2026-03-30 (3 months ago)
Launch vehicle
FALCON 9
Launch site
Air Force Western Test Range (AFWTR)
Object type
Payload
Rocket body
Debris
Shape & HBR
Unknown shape, 1.3 m
Radar Cross Section
Medium (>0.1 m² and <1 m²)

Expand to show TLE details & history
Last TLE update: 2 days ago

TLE from 2 days ago
0 IRIDE-MS1-EAG2-9
1 68449U 26067AK  26171.39528822  .00004782  00000-0  23769-3 0  9999
2 68449  97.4513 129.7231 0005917  72.3826 287.8054 15.18106021 12425
Epoch: 2026-06-20T09:29Z
TLE epoch observation values (Epoch: 2026-06-20T09:29:12.902Z)
Latitude
0.00001°
Longitude
78.80881°
Altitude
513.407 km
Speed
7.608 km/s
True Right ascension
08h 38m 53s
True Declination
0° 00' 00"
Sunlit
Object was in daylight at epoch
Visualization orbit readout
Latitude
Unknown
Longitude
Unknown
Altitude
Unknown
Speed
Unknown
Apparent Right ascension
Unknown
Apparent Declination
Unknown
Sunlit
N/A
Visualization observer readout
Local Sidereal Time
13:40:47
Azimuth
Unknown
Elevation
Unknown
Doppler factor
Unknown
Orbital elements
Apogee altitude
512.61 km
Perigee altitude
504.46 km
Semi-major axis
6,886.672 km
Eccentricity
0.00059
Inclination
97.4513°
RAAN
129.7231°
Arg. of periapsis
72.3826°
True anomaly
287.74083°
Mean anomaly
287.8054°
Eccentric anomaly
287.77312°
Mean motion
3.79777 °/min
Orbital period
94.79 mins
BSTAR
0.00023769
Loading maneuver chart data...
Computing Atmospheric mass density...
Loading historical data...
Loading historical data...
Loading historical data...
Loading historical data...
Loading historical data...
Loading historical data...
Loading historical data...

Documentation

Showing up to 5 results
|